Weather History for KN60 - November, 2012

Change the Weather History Date:

Wednesday, November 14, 2012

  Actual Average Record
Temperature  
Mean Temperature 29 °F -  
Max Temperature 42 °F 35 °F 62 °F (2001)
Min Temperature 16 °F 17 °F -2 °F (2000)
Degree Days  
Heating Degree Days 36    
Month to date heating degree days 509  
Moisture  
Dew Point 25 °F    
Average Humidity 81    
Maximum Humidity 100    
Minimum Humidity 62    
Precipitation  
Precipitation 0.00 in - - ()
Month to date precipitation 0.65  
Year to date precipitation 16.06  
Sea Level Pressure  
Sea Level Pressure 30.11 in    
Wind  
Wind Speed 3 mph (WSW)    
Max Wind Speed 10 mph    
Max Gust Speed 12 mph    
Averages and records for this station are not official NWS values.
T = Trace of Precipitation, MM = Missing Value Source: NWS Daily Summary

Daily Weather History Graph

Daily Weather History Graph

Search for Another Location

Airport or City:

Trip Planner

Search our weather history database for the weather conditions in past years. The results will help you decide how hot, cold, wet, or windy it might be!

Date:

Astronomy

Nov. 14, 2012 Rise Set
Actual Time 7:50 AM CST 5:09 PM CST
Civil Twilight 7:16 AM CST 5:43 PM CST
Nautical Twilight 6:39 AM CST 6:20 PM CST
Astronomical Twilight 6:03 AM CST 6:56 PM CST
Moon 8:46 AM CST (11/14) 5:55 PM CST (11/14)
Length of Visible Light 10h 26m
Length of Day
9h 19m
New Moon, 1% of the Moon is Illuminated
Nov 14
New Moon
Nov 20
First Quarter
Nov 28
Full
Dec 6
Last Quarter
Dec 13
New

Hourly Weather History & Observations

Time (CST) Temp. Windchill Dew Point Humidity Pressure Visibility Wind Dir Wind Speed Gust Speed Precip Events Conditions
12:52 AM 19.9 °F - 18.0 °F 92% 30.19 in - Calm Calm - N/A   Unknown
1:52 AM 16.0 °F - 12.9 °F 88% 30.18 in - Calm Calm - N/A   Unknown
2:52 AM 19.0 °F - 16.0 °F 88% 30.17 in - Calm Calm - N/A   Unknown
3:52 AM 21.0 °F - 18.0 °F 88% 30.16 in - Calm Calm - N/A   Unknown
4:52 AM 19.9 °F - 18.0 °F 92% 30.15 in - Calm Calm - N/A   Unknown
5:52 AM 24.1 °F - 21.0 °F 88% 30.14 in - Calm Calm - N/A   Unknown
6:52 AM 24.1 °F 19.7 °F 21.0 °F 88% 30.13 in - South 3.5 mph - N/A   Unknown
7:52 AM 19.9 °F - 18.0 °F 92% 30.14 in - Calm Calm - N/A   Unknown
8:52 AM 19.9 °F - 16.0 °F 85% 30.14 in - Calm Calm - N/A   Unknown
9:52 AM 28.9 °F 23.9 °F 28.0 °F 96% 30.13 in - SSW 4.6 mph - N/A   Unknown
10:52 AM 36.0 °F 32.1 °F 30.0 °F 79% 30.11 in - SSW 4.6 mph - N/A   Unknown
11:52 AM 37.9 °F 34.4 °F 30.0 °F 73% 30.09 in - WSW 4.6 mph - N/A   Unknown
12:52 PM 39.9 °F 37.8 °F 30.0 °F 68% 30.07 in - WSW 3.5 mph - N/A   Unknown
1:52 PM 41.0 °F 37.1 °F 30.0 °F 65% 30.06 in - WSW 5.8 mph - N/A   Unknown
2:52 PM 42.1 °F 37.1 °F 30.9 °F 65% 30.04 in - SW 8.1 mph - N/A   Unknown
3:52 PM 42.1 °F 37.7 °F 32.0 °F 67% 30.03 in - WSW 6.9 mph - N/A   Unknown
4:52 PM 37.9 °F 34.4 °F 30.9 °F 76% 30.05 in - West 4.6 mph - N/A   Unknown
5:52 PM 34.0 °F 28.0 °F 28.9 °F 82% 30.05 in - West 6.9 mph - N/A   Unknown
6:52 PM 36.0 °F 30.3 °F 30.0 °F 79% 30.07 in - West 6.9 mph - N/A   Unknown
7:52 PM 35.1 °F 27.4 °F 30.0 °F 82% 30.08 in - West 10.4 mph - N/A   Unknown
8:52 PM 34.0 °F 25.5 °F 28.9 °F 82% 30.10 in - West 11.5 mph - N/A   Unknown
9:52 PM 30.9 °F 22.2 °F 27.0 °F 85% 30.11 in - West 10.4 mph - N/A   Unknown
10:52 PM 33.1 °F 23.9 °F 27.0 °F 78% 30.12 in - WNW 12.7 mph - N/A   Unknown
11:52 PM 32.0 °F 20.8 °F 26.1 °F 79% 30.15 in - WNW 17.3 mph - N/A   Unknown